TimeEST,TemperatureF,Dew PointF,Humidity,Sea Level PressureIn,VisibilityMPH,Wind Direction,Wind SpeedMPH,Gust SpeedMPH,PrecipitationIn,Events,Conditions,WindDirDegrees,DateUTC
12:15 AM,25.0,22.8,91,30.40,10.0,Calm,Calm,-,N/A,,Clear,0,2012-11-29 05:15:00
12:35 AM,25.2,22.8,91,30.41,10.0,Calm,Calm,-,N/A,,Clear,0,2012-11-29 05:35:00
12:55 AM,24.8,22.5,91,30.40,10.0,Calm,Calm,-,N/A,,Clear,0,2012-11-29 05:55:00
1:15 AM,25.3,23.0,91,30.39,10.0,Calm,Calm,-,N/A,,Clear,0,2012-11-29 06:15:00
1:35 AM,23.7,21.6,91,30.39,10.0,Calm,Calm,-,N/A,,Clear,0,2012-11-29 06:35:00
1:55 AM,22.3,20.5,93,30.39,10.0,Calm,Calm,-,N/A,,Clear,0,2012-11-29 06:55:00
2:15 AM,21.9,20.5,94,30.39,10.0,Calm,Calm,-,N/A,,Clear,0,2012-11-29 07:15:00
2:35 AM,23.7,21.9,93,30.40,10.0,Calm,Calm,-,N/A,,Clear,0,2012-11-29 07:35:00
2:55 AM,23.4,21.4,92,30.41,10.0,Calm,Calm,-,N/A,,Clear,0,2012-11-29 07:55:00
3:15 AM,22.3,20.7,93,30.41,10.0,Calm,Calm,-,N/A,,Clear,0,2012-11-29 08:15:00
3:35 AM,21.6,20.1,94,30.41,10.0,Calm,Calm,-,N/A,,Clear,0,2012-11-29 08:35:00
3:55 AM,22.5,21.2,95,30.40,10.0,Calm,Calm,-,N/A,,Clear,0,2012-11-29 08:55:00
4:15 AM,22.6,21.2,94,30.40,10.0,Calm,Calm,-,N/A,,Clear,0,2012-11-29 09:15:00
4:35 AM,22.1,20.7,94,30.40,10.0,Calm,Calm,-,N/A,,Clear,0,2012-11-29 09:35:00
4:55 AM,21.6,20.1,94,30.41,10.0,Calm,Calm,-,N/A,,Clear,0,2012-11-29 09:55:00
5:15 AM,21.9,20.3,93,30.41,10.0,Calm,Calm,-,N/A,,Clear,0,2012-11-29 10:15:00
5:35 AM,22.5,20.8,93,30.42,10.0,Calm,Calm,-,N/A,,Clear,0,2012-11-29 10:35:00
5:55 AM,22.1,20.5,93,30.43,10.0,Calm,Calm,-,N/A,,Clear,0,2012-11-29 10:55:00
6:15 AM,21.4,19.8,93,30.42,10.0,Calm,Calm,-,N/A,,Clear,0,2012-11-29 11:15:00
6:35 AM,20.8,19.0,93,30.43,10.0,Calm,Calm,-,N/A,,Clear,0,2012-11-29 11:35:00
6:55 AM,20.8,19.2,93,30.44,10.0,Calm,Calm,-,N/A,,Clear,0,2012-11-29 11:55:00
7:15 AM,21.4,19.9,94,30.44,10.0,Calm,Calm,-,N/A,,Clear,0,2012-11-29 12:15:00
7:35 AM,20.7,19.0,93,30.45,10.0,Calm,Calm,-,N/A,,Clear,0,2012-11-29 12:35:00
7:55 AM,22.6,21.2,94,30.45,10.0,Calm,Calm,-,N/A,,Clear,0,2012-11-29 12:55:00
8:15 AM,25.2,23.4,93,30.45,10.0,Calm,Calm,-,N/A,,Clear,0,2012-11-29 13:15:00
8:35 AM,27.0,24.1,89,30.45,10.0,Calm,Calm,-,N/A,,Clear,0,2012-11-29 13:35:00
8:55 AM,29.3,25.0,84,30.46,10.0,Calm,Calm,-,N/A,,Clear,0,2012-11-29 13:55:00
9:15 AM,31.5,26.2,81,30.46,10.0,Calm,Calm,-,N/A,,Clear,0,2012-11-29 14:15:00
9:35 AM,33.6,27.3,78,30.47,10.0,Calm,Calm,-,N/A,,Clear,0,2012-11-29 14:35:00
9:55 AM,36.1,28.0,72,30.48,10.0,Calm,Calm,-,N/A,,Clear,0,2012-11-29 14:55:00
10:15 AM,38.7,28.4,67,30.48,10.0,Calm,Calm,-,N/A,,Clear,0,2012-11-29 15:15:00
10:35 AM,41.0,28.8,62,30.47,10.0,Calm,Calm,-,N/A,,Clear,0,2012-11-29 15:35:00
11:15 AM,44.6,28.0,52,30.47,10.0,South,3.5,-,N/A,,Clear,180,2012-11-29 16:15:00
11:35 AM,45.9,27.3,48,30.46,10.0,Calm,Calm,-,N/A,,Clear,0,2012-11-29 16:35:00
11:55 AM,46.9,25.7,44,30.45,10.0,SW,5.8,-,N/A,,Clear,220,2012-11-29 16:55:00
12:15 PM,47.8,26.1,43,30.44,10.0,South,3.5,-,N/A,,Clear,170,2012-11-29 17:15:00
12:35 PM,48.7,26.8,43,30.43,10.0,SSW,5.8,-,N/A,,Clear,210,2012-11-29 17:35:00
12:55 PM,50.2,27.3,41,30.42,10.0,SW,8.1,-,N/A,,Clear,220,2012-11-29 17:55:00
1:15 PM,50.9,27.7,41,30.41,10.0,West,4.6,-,N/A,,Clear,260,2012-11-29 18:15:00
1:35 PM,52.2,27.7,39,30.39,10.0,WSW,6.9,-,N/A,,Clear,250,2012-11-29 18:35:00
1:55 PM,52.2,27.3,38,30.38,10.0,SW,4.6,-,N/A,,Clear,230,2012-11-29 18:55:00
2:15 PM,52.5,27.5,38,30.37,10.0,SW,5.8,-,N/A,,Clear,220,2012-11-29 19:15:00
2:35 PM,52.7,27.3,38,30.36,10.0,SW,4.6,-,N/A,,Clear,230,2012-11-29 19:35:00
2:55 PM,53.2,27.3,37,30.36,10.0,SW,5.8,-,N/A,,Clear,230,2012-11-29 19:55:00
3:15 PM,53.2,27.0,36,30.36,10.0,SSW,3.5,-,N/A,,Clear,210,2012-11-29 20:15:00
3:35 PM,53.2,27.1,37,30.36,10.0,SSW,4.6,-,N/A,,Clear,210,2012-11-29 20:35:00
3:55 PM,53.1,26.8,36,30.36,10.0,SSW,4.6,-,N/A,,Clear,210,2012-11-29 20:55:00
4:15 PM,52.7,27.3,38,30.36,10.0,SW,3.5,-,N/A,,Clear,230,2012-11-29 21:15:00
4:35 PM,51.6,28.0,40,30.36,10.0,Calm,Calm,-,N/A,,Clear,0,2012-11-29 21:35:00
4:55 PM,49.5,28.4,44,30.36,10.0,Calm,Calm,-,N/A,,Clear,0,2012-11-29 21:55:00
5:15 PM,44.1,30.0,58,30.36,10.0,Calm,Calm,-,N/A,,Clear,0,2012-11-29 22:15:00
5:35 PM,40.1,30.2,68,30.36,10.0,Calm,Calm,-,N/A,,Clear,0,2012-11-29 22:35:00
5:55 PM,38.7,29.5,70,30.37,10.0,Calm,Calm,-,N/A,,Clear,0,2012-11-29 22:55:00
6:15 PM,37.9,29.5,72,30.37,10.0,Calm,Calm,-,N/A,,Clear,0,2012-11-29 23:15:00
6:35 PM,36.5,29.5,76,30.37,10.0,Calm,Calm,-,N/A,,Clear,0,2012-11-29 23:35:00
6:55 PM,34.5,29.1,81,30.38,10.0,Calm,Calm,-,N/A,,Clear,0,2012-11-29 23:55:00
7:15 PM,34.0,28.8,81,30.38,10.0,Calm,Calm,-,N/A,,Clear,0,2012-11-30 00:15:00
7:35 PM,33.8,28.6,81,30.38,10.0,Calm,Calm,-,N/A,,Clear,0,2012-11-30 00:35:00
7:55 PM,32.5,28.4,85,30.39,10.0,Calm,Calm,-,N/A,,Clear,0,2012-11-30 00:55:00
8:15 PM,32.0,28.2,86,30.39,10.0,Calm,Calm,-,N/A,,Clear,0,2012-11-30 01:15:00
8:35 PM,32.2,28.0,85,30.39,10.0,Calm,Calm,-,N/A,,Clear,0,2012-11-30 01:35:00
8:55 PM,31.1,27.9,88,30.39,10.0,Calm,Calm,-,N/A,,Clear,0,2012-11-30 01:55:00
9:15 PM,31.6,27.9,86,30.39,10.0,Calm,Calm,-,N/A,,Clear,0,2012-11-30 02:15:00
9:35 PM,31.8,27.9,85,30.39,10.0,Calm,Calm,-,N/A,,Clear,0,2012-11-30 02:35:00
9:55 PM,30.2,27.0,88,30.39,10.0,Calm,Calm,-,N/A,,Clear,0,2012-11-30 02:55:00
10:15 PM,30.2,27.5,90,30.38,10.0,Calm,Calm,-,N/A,,Clear,0,2012-11-30 03:15:00
10:35 PM,30.7,27.9,89,30.38,10.0,Calm,Calm,-,N/A,,Clear,0,2012-11-30 03:35:00
10:55 PM,30.0,27.3,90,30.38,10.0,Calm,Calm,-,N/A,,Clear,0,2012-11-30 03:55:00
11:15 PM,29.1,26.6,90,30.38,10.0,Calm,Calm,-,N/A,,Clear,0,2012-11-30 04:15:00
11:35 PM,29.8,27.3,90,30.38,10.0,Calm,Calm,-,N/A,,Clear,0,2012-11-30 04:35:00
11:55 PM,29.5,26.8,90,30.38,10.0,Calm,Calm,-,N/A,,Clear,0,2012-11-30 04:55:00